[[{"header":{"parameterUnit":"m.s-1","parameterCategory":1,"la1":30.2991,"la2":30.254,"lo1":-89.0895,"lo2":-89.0444,"dy":0.0017,"dx":0.0017,"nx":28,"ny":28,"refTime":"2024-04-03T09:00:00:Z","depth":0,"parameterNumber":2,"parameterNumberName":"U-component_of_WINDS"},"data":[0,0,0,0,0,0,0,0,0,0,0,0,0,0,0,0,0,0,0,0,0,0,0,0,0,0,0,0,0,0,0,0,0,0,0,0,0,0,0,0,0,0,0,0,0,0,0,0,0,0,0,0,0,0,0,0,0,0,2.6952,2.6952,0,2.6996,2.6997,2.6997,2.6934,2.6932,2.693,2.6928,2.6981,2.6984,2.6987,0,0,0,0,0,0,0,0,0,0,0,0,0,2.6822,2.6825,2.6952,2.6952,2.6953,2.6996,2.6997,2.6997,2.6935,2.6932,2.6929,2.6927,2.6979,2.6984,2.6988,0,0,0,0,0,0,0,0,0,0,0,0,0,2.6874,2.6826,2.6952,2.6927,2.6925,2.6996,2.6997,2.6997,2.6935,2.6932,2.6929,2.6925,2.6978,2.6983,2.6988,2.7088,0,0,2.7004,2.7007,0,0,0,0,0,0,0,0,2.6871,2.6879,2.693,2.6929,2.6927,2.6956,2.697,2.7028,2.6936,2.6932,2.6928,2.6924,2.6976,2.6981,2.6997,2.7091,2.7093,2.7005,2.7008,2.701,2.7012,0,0,0,0,0,0,0,2.6868,2.6877,2.697,2.6931,2.6929,2.6916,2.692,2.6981,2.6972,2.6932,2.6927,2.6933,2.6974,2.6992,2.6998,2.7094,2.7005,2.7009,2.7013,2.7015,2.7275,2.7279,0,0,0,0,0,0,2.6866,2.6874,2.6968,2.6971,2.689,2.6921,2.6925,2.695,2.6971,2.6971,2.6936,2.693,2.6985,2.6992,2.6999,2.7119,2.701,2.7015,2.7018,2.7272,2.7276,2.728,0,0,0,0,0,0,2.6863,2.6875,2.6966,2.6921,2.6932,2.6927,2.6956,2.6953,2.697,2.6974,2.6973,2.6955,2.6982,2.6992,2.7067,2.712,2.7017,2.7022,2.7267,2.7273,2.7278,2.7359,0,0,0,0,0,0,2.686,2.6874,2.691,2.6922,2.6934,2.7031,2.6959,2.6956,2.6979,2.6971,2.6992,2.6992,2.698,2.7059,2.7072,2.7126,2.7026,2.7262,2.727,2.7276,2.7352,2.7367,2.738,0,0,0,0,0,2.6855,2.6932,2.6912,2.6924,2.6978,2.7034,2.7041,2.7023,2.6983,2.702,2.7024,2.6992,2.7112,2.7067,2.7081,2.7137,2.7259,2.7268,2.7276,2.7345,2.7364,2.738,0,0,0,0,0,0,2.6927,2.6933,2.6911,2.6993,2.7013,2.7023,2.7069,2.7043,2.7077,2.7069,2.7048,2.7054,2.7134,2.7143,2.7093,2.7237,2.7179,2.7191,2.7228,2.7245,2.7259,2.7256,2.7031,0,0,0,0,0,2.6952,2.6994,2.6998,2.707,2.7081,2.7074,2.7097,2.7082,2.7103,2.7112,2.712,2.7144,2.7188,2.7217,2.7257,2.7353,2.7358,2.7399,2.7413,2.7424,2.7435,2.749,2.7508,2.7308,2.7308,2.7308,0,0,2.7005,2.7013,2.7041,2.7085,2.7098,2.7145,2.7081,2.7133,2.7168,2.7121,2.7191,2.7199,2.7225,2.7311,2.735,2.7321,2.7492,2.7435,2.7444,2.7449,2.75,2.7519,2.7536,2.7314,2.7313,2.7312,0,0,2.7125,2.7134,2.7196,2.7212,2.7233,2.7228,2.7244,2.7258,2.726,2.7331,2.7297,2.7341,2.7415,2.7436,2.7456,2.7587,2.756,2.7601,2.7675,2.7729,2.7744,2.7758,2.7807,2.7825,2.7612,2.7612,2.7612,0,2.7188,2.7254,2.7232,2.7287,2.7309,2.7266,2.7331,2.7348,2.7383,2.74,2.7367,2.7462,2.7476,2.7568,2.76,2.7617,2.7637,2.7599,2.7743,2.7757,2.777,2.7816,2.7835,2.7617,2.7616,2.7616,2.7616,0,2.7333,2.738,2.7428,2.7461,2.7488,2.7547,2.7538,2.7568,2.7552,2.7552,2.7627,2.7642,2.7686,2.7707,2.7692,2.7798,2.778,2.7746,2.7688,2.7794,2.7838,2.7855,2.7624,2.7622,2.7621,2.762,0,0,2.7497,2.7518,2.7537,2.7552,2.7574,2.7611,2.7671,2.7712,2.774,2.7766,2.7818,2.7883,2.7852,2.7876,2.7863,2.791,2.8016,2.787,2.787,2.7898,2.8137,2.8163,2.8184,2.7998,2.8001,2.8004,2.8135,0,2.7618,2.7718,2.7701,2.7799,2.7844,2.7806,2.7859,2.788,2.7882,2.7923,2.7927,2.7974,2.7928,2.7943,2.7987,2.7993,2.8064,2.7984,2.8049,2.8051,2.8043,2.8206,2.8233,2.8356,2.8152,2.8155,2.8157,0,2.7772,2.7802,2.7904,2.7921,2.794,2.7987,2.8025,2.8063,2.8088,2.8087,2.8114,2.8094,2.8157,2.8098,2.8187,2.8133,2.8159,2.8167,2.8171,2.8177,2.8111,2.8218,2.8395,2.8414,2.8183,2.8181,2.8179,0,2.7884,2.7951,2.8021,2.8035,2.8057,2.8091,2.8102,2.8123,2.815,2.8184,2.8202,2.8244,2.8268,2.8303,2.8296,2.8253,2.8388,2.8327,2.8391,2.8391,2.8421,2.8419,2.8606,2.8437,2.8436,2.8436,2.8436,0,2.802,2.8085,2.8071,2.8115,2.8187,2.817,2.8243,2.825,2.827,2.8316,2.8287,2.8332,2.832,2.8366,2.8361,2.8437,2.8448,2.8451,2.8449,2.8454,2.8453,2.8471,2.8462,2.8441,2.844,2.8439,2.8438,0,2.8157,2.815,2.8225,2.8239,2.8245,2.8298,2.8312,2.8355,2.8355,2.8415,2.8428,2.843,2.8482,2.8479,2.8539,2.8536,2.863,2.8618,2.8621,2.8619,2.8683,2.8677,2.8887,2.8915,2.8727,2.8729,2.8731,0,2.8245,2.8294,2.8314,2.8342,2.8355,2.84,2.8427,2.8414,2.8443,2.8477,2.8517,2.8566,2.8605,2.8691,2.87,2.8747,2.8736,2.8807,2.8743,2.8747,2.8739,2.8736,2.8742,2.8819,2.8822,2.8823,2.8825,0,2.8403,2.8397,2.8436,2.8475,2.8507,2.8538,2.8565,2.8591,2.858,2.8616,2.8668,2.8698,2.876,2.881,2.8855,2.887,2.8848,2.8845,2.8862,2.8868,2.8868,2.887,2.8656,2.884,2.8838,2.8837,2.8836,2.8836,2.8518,2.8561,2.8582,2.8627,2.8646,2.8673,2.8714,2.872,2.8763,2.881,2.88,2.886,2.8887,2.8945,2.8964,2.9013,2.8988,2.9013,2.9019,2.9026,2.9034,2.886,2.9021,2.9021,2.902,2.902,2.902,0,2.8675,2.8687,2.8729,2.8768,2.8805,2.8778,2.8808,2.8841,2.8893,2.8919,2.8958,2.902,2.907,2.9083,2.9132,2.9169,2.916,2.9183,2.918,2.9184,2.9052,2.9033,2.9189,2.9189,2.9189,2.9189,2.9189,2.9189,2.8761,2.8832,2.883,2.8912,2.8924,2.8981,2.9,2.9027,2.9048,2.9117,2.9158,2.9165,2.9188,2.9239,2.9284,2.9287,2.9308,2.9335,2.9334,2.921,2.9193,2.9177,2.9159,2.9339,2.9339,2.9462,2.9463,2.9464]},{"header":{"parameterUnit":"m.s-1","parameterCategory":1,"la1":30.2991,"la2":30.254,"lo1":-89.0895,"lo2":-89.0444,"dy":0.0017,"dx":0.0017,"nx":28,"ny":28,"refTime":"2024-04-03T09:00:00:Z","depth":0,"parameterNumber":3,"parameterNumberName":"V-component_of_WINDS"},"data":[0,0,0,0,0,0,0,0,0,0,0,0,0,0,0,0,0,0,0,0,0,0,0,0,0,0,0,0,0,0,0,0,0,0,0,0,0,0,0,0,0,0,0,0,0,0,0,0,0,0,0,0,0,0,0,0,0,0,0.7385,0.7387,0,0.7501,0.7502,0.7504,0.7494,0.7492,0.749,0.7489,0.7611,0.7616,0.7621,0,0,0,0,0,0,0,0,0,0,0,0,0,0.716,0.7164,0.7385,0.7387,0.7388,0.7501,0.7502,0.7504,0.7494,0.7492,0.749,0.7488,0.761,0.7616,0.7622,0,0,0,0,0,0,0,0,0,0,0,0,0,0.7265,0.7166,0.7385,0.7397,0.7399,0.75,0.7502,0.7504,0.7495,0.7492,0.7489,0.7487,0.7608,0.7615,0.7622,0.7721,0,0,0.7645,0.7648,0,0,0,0,0,0,0,0,0.7259,0.7273,0.7394,0.7396,0.7399,0.748,0.7468,0.7577,0.7495,0.7458,0.7489,0.7485,0.757,0.7581,0.7608,0.7727,0.7732,0.7646,0.765,0.7653,0.7655,0,0,0,0,0,0,0,0.7252,0.7268,0.7431,0.7395,0.7399,0.7398,0.741,0.7489,0.7528,0.7461,0.7461,0.7475,0.7571,0.7601,0.7611,0.7734,0.7645,0.7652,0.7656,0.7659,0.794,0.7943,0,0,0,0,0,0,0.7241,0.7262,0.7427,0.7435,0.7321,0.7404,0.7417,0.7457,0.7527,0.7535,0.7477,0.7474,0.759,0.7602,0.7615,0.7736,0.7653,0.766,0.7664,0.7937,0.7941,0.7944,0,0,0,0,0,0,0.7237,0.7256,0.7423,0.7348,0.737,0.741,0.7455,0.746,0.749,0.7538,0.7546,0.75,0.7588,0.7605,0.7695,0.7741,0.7663,0.767,0.7934,0.7938,0.7943,0.7979,0,0,0,0,0,0,0.723,0.7254,0.7291,0.7349,0.7373,0.7499,0.7458,0.7465,0.7503,0.75,0.7562,0.757,0.7587,0.7684,0.7702,0.7749,0.7676,0.793,0.7936,0.7941,0.7974,0.7984,0.7993,0,0,0,0,0,0.7222,0.7298,0.7293,0.7313,0.742,0.7502,0.7516,0.7533,0.7506,0.7545,0.7575,0.7568,0.7732,0.7693,0.7714,0.7764,0.7927,0.7934,0.7941,0.7969,0.7982,0.7993,0,0,0,0,0,0,0.7246,0.7306,0.7301,0.7398,0.7445,0.75,0.7549,0.7546,0.7602,0.7597,0.7618,0.7632,0.7723,0.7752,0.7707,0.7863,0.7826,0.7837,0.7841,0.7853,0.7863,0.7855,0.7682,0,0,0,0,0,0.7262,0.7322,0.7371,0.7452,0.7475,0.7508,0.7544,0.7553,0.7603,0.7623,0.7661,0.7711,0.7774,0.7815,0.7875,0.7977,0.7992,0.8022,0.8031,0.8039,0.8049,0.8107,0.8121,0.7967,0.7967,0.7966,0,0,0.7297,0.7337,0.7373,0.7457,0.7495,0.7558,0.7525,0.7593,0.764,0.7634,0.7721,0.775,0.7808,0.7904,0.7949,0.7931,0.8095,0.8048,0.8053,0.806,0.8115,0.813,0.8143,0.7971,0.797,0.797,0,0,0.7392,0.7428,0.7499,0.7537,0.7593,0.7614,0.7631,0.7687,0.7706,0.7793,0.779,0.7848,0.7955,0.7996,0.8031,0.8142,0.8138,0.8161,0.8212,0.8267,0.828,0.8291,0.8332,0.8346,0.8171,0.8171,0.8171,0,0.7429,0.7522,0.7536,0.7605,0.7642,0.7638,0.7711,0.7748,0.7822,0.7849,0.7828,0.7963,0.8001,0.8108,0.8134,0.8162,0.8184,0.8155,0.8276,0.8288,0.8298,0.8338,0.8353,0.8173,0.8173,0.8173,0.8172,0,0.7565,0.763,0.768,0.7751,0.7794,0.7864,0.7891,0.7933,0.7938,0.7962,0.8051,0.8097,0.8167,0.8192,0.8198,0.83,0.8288,0.8272,0.8235,0.8315,0.8353,0.8368,0.8177,0.8176,0.8175,0.8175,0,0,0.768,0.7756,0.7775,0.7807,0.7869,0.792,0.7991,0.8057,0.8094,0.8145,0.8206,0.8297,0.8282,0.8322,0.8332,0.8381,0.8468,0.8359,0.836,0.8379,0.8585,0.8598,0.8615,0.8464,0.8467,0.8469,0.858,0,0.7783,0.7907,0.7922,0.8032,0.8093,0.809,0.8152,0.8197,0.8221,0.8277,0.8304,0.8369,0.8343,0.8368,0.8415,0.8447,0.8509,0.8439,0.8523,0.8526,0.8511,0.8634,0.8649,0.8751,0.8595,0.8597,0.8599,0,0.792,0.7973,0.809,0.8143,0.817,0.8225,0.8288,0.8341,0.8393,0.8407,0.8451,0.8455,0.853,0.8489,0.8593,0.8545,0.858,0.8601,0.8605,0.8615,0.8569,0.865,0.8784,0.88,0.8622,0.862,0.8619,0,0.7994,0.8095,0.8178,0.8206,0.827,0.8309,0.8338,0.8387,0.8426,0.8481,0.8508,0.8571,0.8607,0.8657,0.8679,0.8646,0.8782,0.8743,0.8798,0.8798,0.8828,0.8827,0.8972,0.8848,0.8848,0.8847,0.8847,0,0.8108,0.818,0.8213,0.8264,0.8345,0.8361,0.8441,0.8469,0.8512,0.857,0.8571,0.8626,0.865,0.8709,0.8727,0.8812,0.8827,0.8842,0.8846,0.8843,0.8842,0.8868,0.8862,0.8851,0.8851,0.885,0.8849,0,0.8206,0.823,0.832,0.8373,0.8388,0.8446,0.8492,0.8543,0.8565,0.8638,0.8657,0.8693,0.8763,0.8789,0.8874,0.8886,0.8984,0.8982,0.8966,0.8968,0.9022,0.9018,0.9192,0.9216,0.9074,0.9075,0.9076,0,0.8278,0.8333,0.8392,0.843,0.8459,0.8521,0.8561,0.8579,0.8621,0.8684,0.8728,0.8796,0.8852,0.8963,0.8999,0.9064,0.9064,0.9121,0.9074,0.907,0.9068,0.9065,0.9071,0.913,0.9132,0.9133,0.9134,0,0.8404,0.8413,0.847,0.8532,0.8579,0.8628,0.8677,0.8708,0.8734,0.8781,0.8851,0.8895,0.8981,0.905,0.9117,0.9148,0.9147,0.9148,0.9164,0.9163,0.9152,0.916,0.8992,0.9144,0.9143,0.9142,0.9142,0.9141,0.8493,0.8542,0.8591,0.8654,0.8692,0.8737,0.8787,0.8816,0.8874,0.8945,0.8952,0.9028,0.9079,0.9169,0.9203,0.9264,0.9249,0.9272,0.9279,0.9285,0.929,0.9141,0.9276,0.9275,0.9275,0.9275,0.9275,0,0.862,0.8651,0.8709,0.8776,0.8827,0.8818,0.8871,0.8914,0.898,0.9027,0.9082,0.9164,0.923,0.927,0.9338,0.9379,0.938,0.9396,0.9394,0.9402,0.9298,0.9278,0.9394,0.9394,0.9394,0.9394,0.9394,0.9394,0.8693,0.8776,0.8791,0.8893,0.8924,0.8997,0.9028,0.907,0.9108,0.9198,0.9253,0.9278,0.9323,0.9394,0.9455,0.9465,0.9491,0.9509,0.9519,0.9421,0.9409,0.9397,0.9379,0.9514,0.9514,0.9617,0.9618,0.9619]}]]